Imperial, NE

11:54 AM MDT on August 22, 2017 (GMT -0600)
Imperial Municipal

Weather History for KIML - May, 2013

Change the Weather History Date:

Thursday, May 9, 2013

  Actual Average Record
Temperature  
Mean Temperature 56 °F 57 °F  
Max Temperature 66 °F 71 °F 93 °F (2011)
Min Temperature 45 °F 44 °F 30 °F (1997)
Degree Days  
Heating Degree Days 9 8  
Month to date heating degree days 145 88  
Cooling Degree Days 0 1  
Month to date cooling degree days 0 5  
Year to date cooling degree days 2 6  
Growing Degree Days 6 (Base 50)    
Moisture  
Dew Point 45 °F    
Average Humidity 64    
Maximum Humidity 86    
Minimum Humidity 42    
Precipitation  
Precipitation T in 0.07 in 2.02 in (1957)
Sea Level Pressure  
Sea Level Pressure 30.07 in    
Wind  
Wind Speed 10 mph (North)    
Max Wind Speed 22 mph    
Max Gust Speed 26 mph    
Visibility 10 miles    
Events      
T = Trace of Precipitation, MM = Missing Value Source: NWS Daily Summary

Daily Weather History Graph

Daily Weather History Graph

Search for Another Location

Airport or City:

Trip Planner

Search our weather history database for the weather conditions in past years. The results will help you decide how hot, cold, wet, or windy it might be!

Date:

Astronomy

May. 09, 2013 Rise Set
Actual Time 5:35 AM MDT 7:50 PM MDT
Civil Twilight 5:05 AM MDT 8:21 PM MDT
Nautical Twilight 4:27 AM MDT 8:58 PM MDT
Astronomical Twilight 3:46 AM MDT 9:40 PM MDT
Moon 5:21 AM MDT (5/9) 7:47 PM MDT (5/9)
Length of Visible Light 15h 15m
Length of Day
14h 14m
Waning Crescent, 0% of the Moon is Illuminated
May 9
Waning Crescent
May 9
New
May 17
First Quarter
May 24
Full
May 31
Last Quarter

Hourly Weather History & Observations

Time (MDT) Temp. Windchill Dew Point Humidity Pressure Visibility Wind Dir Wind Speed Gust Speed Precip Events Conditions
12:53 AM 50.0 °F - 44.1 °F 80% 29.99 in 10.0 mi Calm Calm - N/A   Clear
1:53 AM 48.9 °F - 43.0 °F 80% 29.97 in 10.0 mi NW 5.8 mph - N/A   Clear
2:53 AM 48.0 °F - 42.1 °F 80% 29.98 in 10.0 mi NW 6.9 mph - N/A   Clear
3:53 AM 46.9 °F - 41.0 °F 80% 30.00 in 10.0 mi WNW 4.6 mph - N/A   Clear
4:53 AM 46.0 °F 43.9 °F 41.0 °F 83% 30.01 in 10.0 mi WNW 4.6 mph - N/A   Clear
5:53 AM 46.0 °F 42.5 °F 42.1 °F 86% 30.03 in 10.0 mi West 6.9 mph - N/A   Clear
6:53 AM 48.9 °F - 44.1 °F 83% 30.04 in 10.0 mi NNW 9.2 mph - N/A   Partly Cloudy
7:53 AM 52.0 °F - 46.0 °F 80% 30.06 in 10.0 mi North 16.1 mph - N/A   Partly Cloudy
8:30 AM 53.6 °F - 46.4 °F 77% 30.09 in 10.0 mi NNE 18.4 mph - N/A   Overcast
8:53 AM 54.0 °F - 46.9 °F 77% 30.09 in 10.0 mi North 16.1 mph - N/A   Overcast
9:53 AM 55.0 °F - 46.9 °F 74% 30.10 in 10.0 mi NNE 9.2 mph - N/A   Overcast
11:53 AM 55.9 °F - 48.0 °F 75% 30.11 in 10.0 mi NE 13.8 mph - N/A   Overcast
12:44 PM 59.0 °F - 46.4 °F 63% 30.12 in 10.0 mi NNE 16.1 mph - N/A   Overcast
12:53 PM 61.0 °F - 46.0 °F 58% 30.10 in 10.0 mi NNE 17.3 mph 21.9 mph N/A   Overcast
1:53 PM 64.0 °F - 45.0 °F 50% 30.07 in 10.0 mi NNE 16.1 mph - N/A   Mostly Cloudy
2:53 PM 64.9 °F - 44.1 °F 47% 30.06 in 10.0 mi NE 17.3 mph - N/A   Overcast
3:53 PM 66.0 °F - 43.0 °F 43% 30.05 in 10.0 mi NE 17.3 mph 24.2 mph N/A   Mostly Cloudy
4:53 PM 66.0 °F - 44.1 °F 45% 30.05 in 10.0 mi ENE 15.0 mph - N/A   Mostly Cloudy
5:53 PM 62.1 °F - 45.0 °F 53% 30.07 in 10.0 mi East 12.7 mph - N/A   Mostly Cloudy
6:53 PM 59.0 °F - 46.9 °F 64% 30.09 in 10.0 mi East 8.1 mph - 0.00 in   Scattered Clouds
7:53 PM 54.0 °F - 46.9 °F 77% 30.11 in 10.0 mi ESE 4.6 mph - N/A   Clear
8:53 PM 52.0 °F - 46.9 °F 83% 30.13 in 10.0 mi Calm Calm - N/A   Clear
9:53 PM 48.9 °F - 45.0 °F 86% 30.15 in 10.0 mi Calm Calm - N/A   Clear
10:53 PM 48.2 °F - 44.6 °F 87% 30.15 in 10.0 mi WSW 5.8 mph - N/A   Clear
11:53 PM 46.4 °F 44.3 °F 42.8 °F 87% 30.16 in 10.0 mi West 4.6 mph - N/A   Clear